,,Stat5,,Stat1,,Stat2,,Stat3,,Stat4,,Wind1,,Wind1,
time,status,PA1M_AVG,status,PR1M_SUM,status,RH1M_AVG,status,SR1M_AVG,status,TA1M_AVG,status,W1dAve1m,status,W1sAve1m,
2001-08-27, 00:00:00,VALID,917.431,VALID,0,VALID,98.7121,VALID,-0.0339617,VALID,19.5941,VALID,12,VALID,1.60612,
2001-08-27, 00:01:00,VALID,917.431,VALID,0,VALID,98.7401,VALID,-0.0339617,VALID,19.5941,VALID,14,VALID,1.29793,
2001-08-27, 00:02:00,VALID,917.462,VALID,0,VALID,98.7693,VALID,0,VALID,19.5902,VALID,20,VALID,1.22335,
2001-08-27, 00:03:00,VALID,917.466,VALID,0,VALID,98.7821,VALID,0,VALID,19.5904,VALID,358,VALID,1.1748,
2001-08-27, 00:04:00,VALID,917.478,VALID,0,VALID,98.7465,VALID,0,VALID,19.5646,VALID,11,VALID,1.01379,
2001-08-27, 00:05:00,VALID,917.414,VALID,0,VALID,98.7859,VALID,-0.0339617,VALID,19.578,VALID,21,VALID,1.92166,
2001-08-27, 00:06:00,VALID,917.408,VALID,0,VALID,98.8329,VALID,-0.0509425,VALID,19.5775,VALID,20,VALID,2.01623,
2001-08-27, 00:07:00,VALID,917.4,VALID,0,VALID,98.8113,VALID,-0.0509425,VALID,19.5681,VALID,31,VALID,1.76786,
2001-08-27, 00:08:00,VALID,917.36,VALID,0,VALID,98.7935,VALID,-0.0169808,VALID,19.5484,VALID,22,VALID,2.11458,
2001-08-27, 00:09:00,VALID,917.343,VALID,0,VALID,98.777,VALID,-0.0169808,VALID,19.5325,VALID,18,VALID,2.04196,
2001-08-27, 00:10:00,VALID,917.324,VALID,0,VALID,98.7935,VALID,-0.0169808,VALID,19.5226,VALID,20,VALID,2.13542,
2001-08-27, 00:11:00,VALID,917.313,VALID,0,VALID,98.7833,VALID,0,VALID,19.503,VALID,26,VALID,1.7602,
2001-08-27, 00:12:00,VALID,917.284,VALID,0,VALID,98.8049,VALID,0,VALID,19.5169,VALID,16,VALID,1.7702,
2001-08-27, 00:13:00,VALID,917.27,VALID,0,VALID,98.796,VALID,-0.0169808,VALID,19.4871,VALID,34,VALID,1.67368,
2001-08-27, 00:14:00,VALID,917.246,VALID,0,VALID,98.8189,VALID,-0.0169808,VALID,19.491,VALID,21,VALID,2.89391,
2001-08-27, 00:15:00,VALID,917.21,VALID,0,VALID,98.8177,VALID,-0.0169808,VALID,19.4808,VALID,22,VALID,1.81971,
2001-08-27, 00:16:00,VALID,917.191,VALID,0,VALID,98.8062,VALID,0,VALID,19.4776,VALID,13,VALID,1.57031,
2001-08-27, 00:17:00,VALID,917.169,VALID,0,VALID,98.763,VALID,0,VALID,19.4259,VALID,4,VALID,1.3746,
2001-08-27, 00:18:00,VALID,917.137,VALID,0,VALID,98.7566,VALID,0,VALID,19.3936,VALID,5,VALID,1.77617,
2001-08-27, 00:19:00,VALID,917.117,VALID,0,VALID,98.7643,VALID,-0.0169808,VALID,19.3807,VALID,18,VALID,1.58193,
2001-08-27, 00:20:00,VALID,917.093,VALID,0,VALID,98.7833,VALID,-0.0339617,VALID,19.3807,VALID,19,VALID,1.89043,
2001-08-27, 00:21:00,VALID,917.081,VALID,0,VALID,98.7693,VALID,0,VALID,19.3546,VALID,17,VALID,2.19571,
2001-08-27, 00:22:00,VALID,917.068,VALID,0,VALID,98.7859,VALID,-0.0339617,VALID,19.3618,VALID,13,VALID,1.46957,
2001-08-27, 00:23:00,VALID,917.057,VALID,0,VALID,98.7693,VALID,-0.0169808,VALID,19.3392,VALID,15,VALID,1.15004,
2001-08-27, 00:24:00,VALID,917.044,VALID,0,VALID,98.8139,VALID,-0.0509425,VALID,19.3487,VALID,22,VALID,0.905633,
2001-08-27, 00:25:00,VALID,917.019,VALID,0,VALID,98.8316,VALID,-0.0679233,VALID,19.3651,VALID,3,VALID,0.83754,
2001-08-27, 00:26:00,VALID,917.001,VALID,0,VALID,98.8482,VALID,-0.0849042,VALID,19.3484,VALID,23,VALID,1.16934,
2001-08-27, 00:27:00,VALID,916.981,VALID,0,VALID,98.8367,VALID,-0.0339617,VALID,19.3589,VALID,14,VALID,2.40773,
2001-08-27, 00:28:00,VALID,916.96,VALID,0,VALID,98.7566,VALID,-0.0169808,VALID,19.3002,VALID,341,VALID,2.51191,
2001-08-27, 00:29:00,VALID,916.963,VALID,0,VALID,98.7172,VALID,0,VALID,19.2545,VALID,338,VALID,0.965946,
2001-08-27, 00:30:00,VALID,916.992,VALID,0,VALID,98.7274,VALID,-0.0169808,VALID,19.2458,VALID,193,VALID,0.311472,
2001-08-27, 00:31:00,VALID,916.986,VALID,0,VALID,98.7261,VALID,-0.0169808,VALID,19.2419,VALID,37,VALID,1.58053,
2001-08-27, 00:32:00,VALID,916.977,VALID,0,VALID,98.7859,VALID,-0.0169808,VALID,19.2488,VALID,47,VALID,0.967311,
2001-08-27, 00:33:00,VALID,916.982,VALID,0,VALID,98.7871,VALID,-0.0169808,VALID,19.2553,VALID,337,VALID,0.835537,
2001-08-27, 00:34:00,VALID,916.98,VALID,0,VALID,98.7999,VALID,0,VALID,19.258,VALID,28,VALID,1.25898,
2001-08-27, 00:35:00,VALID,916.948,VALID,0,VALID,98.7541,VALID,-0.0509425,VALID,19.2364,VALID,19,VALID,1.20988,
2001-08-27, 00:36:00,VALID,916.944,VALID,0,VALID,98.7973,VALID,-0.0169808,VALID,19.2423,VALID,21,VALID,1.36543,
2001-08-27, 00:37:00,VALID,916.943,VALID,0,VALID,98.8151,VALID,0,VALID,19.2486,VALID,28,VALID,0.833934,
2001-08-27, 00:38:00,VALID,916.915,VALID,0,VALID,98.8227,VALID,-0.0169808,VALID,19.2652,VALID,12,VALID,0.451275,
2001-08-27, 00:39:00,VALID,916.918,VALID,0,VALID,98.8113,VALID,-0.0169808,VALID,19.2582,VALID,25,VALID,1.18049,
2001-08-27, 00:40:00,VALID,916.913,VALID,0,VALID,98.8189,VALID,-0.0169808,VALID,19.2389,VALID,2,VALID,0.620271,
2001-08-27, 00:41:00,VALID,916.928,VALID,0,VALID,98.8393,VALID,0,VALID,19.2649,VALID,39,VALID,0.247396,
2001-08-27, 00:42:00,VALID,916.911,VALID,0,VALID,98.8494,VALID,-0.0169808,VALID,19.262,VALID,217,VALID,0.0943359,
2001-08-27, 00:43:00,VALID,916.936,VALID,0,VALID,98.8266,VALID,-0.0169808,VALID,19.2615,VALID,97,VALID,0.522171,
2001-08-27, 00:44:00,VALID,916.916,VALID,0,VALID,98.8266,VALID,-0.0169808,VALID,19.2682,VALID,17,VALID,0.749609,
2001-08-27, 00:45:00,VALID,916.903,VALID,0,VALID,98.8507,VALID,-0.0679233,VALID,19.2746,VALID,29,VALID,0.798077,
2001-08-27, 00:46:00,VALID,916.896,VALID,0,VALID,98.838,VALID,-0.0849042,VALID,19.2684,VALID,1,VALID,0.639391,
2001-08-27, 00:47:00,VALID,916.892,VALID,0,VALID,98.8444,VALID,-0.101885,VALID,19.2784,VALID,17,VALID,0.638822,
2001-08-27, 00:48:00,VALID,916.875,VALID,0,VALID,98.8825,VALID,-0.0509425,VALID,19.2746,VALID,23,VALID,0.426809,
2001-08-27, 00:49:00,VALID,916.88,VALID,0,VALID,98.8685,VALID,-0.0169808,VALID,19.2811,VALID,27,VALID,0.580128,
2001-08-27, 00:50:00,VALID,916.891,VALID,0,VALID,98.8711,VALID,-0.0339617,VALID,19.2744,VALID,21,VALID,1.13789,
2001-08-27, 00:51:00,VALID,916.884,VALID,0.2,VALID,98.8851,VALID,-0.0509425,VALID,19.2972,VALID,19,VALID,0.859797,
2001-08-27, 00:52:00,VALID,916.879,VALID,0,VALID,98.8863,VALID,-0.0509425,VALID,19.3042,VALID,32,VALID,0.498242,
2001-08-27, 00:53:00,VALID,916.894,VALID,0,VALID,98.894,VALID,-0.0339617,VALID,19.2968,VALID,54,VALID,0.118389,
2001-08-27, 00:54:00,VALID,916.9,VALID,0,VALID,98.8685,VALID,-0.0339617,VALID,19.2809,VALID,196,VALID,0.669613,
2001-08-27, 00:55:00,VALID,916.888,VALID,0,VALID,98.8507,VALID,0,VALID,19.2647,VALID,176,VALID,0.511619,
2001-08-27, 00:56:00,VALID,916.86,VALID,0.2,VALID,98.8418,VALID,-0.0509425,VALID,19.2297,VALID,233,VALID,0.45847,
2001-08-27, 00:57:00,VALID,916.842,VALID,0,VALID,98.8342,VALID,-0.0679233,VALID,19.2103,VALID,243,VALID,0.116587,
2001-08-27, 00:58:00,VALID,916.793,VALID,0,VALID,98.8342,VALID,-0.0849042,VALID,19.1748,VALID,243,VALID,0.0833984,
2001-08-27, 00:59:00,VALID,916.787,VALID,0.2,VALID,98.8762,VALID,-0.0339617,VALID,19.2011,VALID,240,VALID,0.25549,
2001-08-27, 01:00:00,VALID,916.791,VALID,0,VALID,98.866,VALID,-0.0509425,VALID,19.1683,VALID,213,VALID,1.1584,
2001-08-27, 01:01:00,VALID,916.788,VALID,0,VALID,98.8558,VALID,-0.0339617,VALID,19.1618,VALID,209,VALID,1.01663,
2001-08-27, 01:02:00,VALID,916.774,VALID,0.2,VALID,98.8762,VALID,-0.0509425,VALID,19.1517,VALID,250,VALID,0.612048,
2001-08-27, 01:03:00,VALID,916.758,VALID,0,VALID,98.8774,VALID,-0.0679233,VALID,19.1526,VALID,271,VALID,0.963942,
2001-08-27, 01:04:00,VALID,916.752,VALID,0,VALID,98.8584,VALID,-0.0509425,VALID,19.1258,VALID,264,VALID,1.58183,
2001-08-27, 01:05:00,VALID,916.687,VALID,0,VALID,98.8787,VALID,-0.0849042,VALID,19.1199,VALID,233,VALID,0.879006,
2001-08-27, 01:06:00,VALID,916.663,VALID,0,VALID,98.8889,VALID,-0.0679233,VALID,19.1233,VALID,301,VALID,0.263281,
2001-08-27, 01:07:00,VALID,916.643,VALID,0,VALID,98.9016,VALID,-0.101885,VALID,19.1296,VALID,309,VALID,0.960515,
2001-08-27, 01:08:00,VALID,916.612,VALID,0,VALID,98.8494,VALID,-0.0339617,VALID,19.104,VALID,269,VALID,0.830664,
2001-08-27, 01:09:00,VALID,916.592,VALID,0,VALID,98.8634,VALID,-0.0169808,VALID,19.1107,VALID,217,VALID,0.322716,
2001-08-27, 01:10:00,VALID,916.582,VALID,0,VALID,98.8901,VALID,-0.0509425,VALID,19.1166,VALID,266,VALID,0.756373,
2001-08-27, 01:11:00,VALID,916.556,VALID,0,VALID,98.8863,VALID,-0.0509425,VALID,19.1067,VALID,253,VALID,0.850962,
2001-08-27, 01:12:00,VALID,916.555,VALID,0,VALID,98.8685,VALID,-0.0679233,VALID,19.1107,VALID,225,VALID,0.745066,
2001-08-27, 01:13:00,VALID,916.55,VALID,0,VALID,98.8507,VALID,-0.0679233,VALID,19.1007,VALID,257,VALID,0.395032,
2001-08-27, 01:14:00,VALID,916.543,VALID,0,VALID,98.8698,VALID,-0.0509425,VALID,19.1072,VALID,290,VALID,0.320313,
2001-08-27, 01:15:00,VALID,916.526,VALID,0,VALID,98.8571,VALID,0.0169808,VALID,19.0995,VALID,301,VALID,0.366343,
2001-08-27, 01:16:00,VALID,916.528,VALID,0,VALID,98.8723,VALID,0.0339617,VALID,19.1028,VALID,331,VALID,0.111328,
2001-08-27, 01:17:00,VALID,916.499,VALID,0,VALID,98.8507,VALID,0.0169808,VALID,19.0896,VALID,282,VALID,0.369591,
2001-08-27, 01:18:00,VALID,916.483,VALID,0,VALID,98.8698,VALID,0.0849042,VALID,19.106,VALID,325,VALID,0.322574,
2001-08-27, 01:19:00,VALID,916.469,VALID,0,VALID,98.8685,VALID,0.0849042,VALID,19.1057,VALID,349,VALID,0.477965,
2001-08-27, 01:20:00,VALID,916.444,VALID,0,VALID,98.8545,VALID,0.0849042,VALID,19.0928,VALID,24,VALID,0.262747,
2001-08-27, 01:21:00,VALID,916.438,VALID,0,VALID,98.8787,VALID,0.0679233,VALID,19.1087,VALID,19,VALID,0.0128205,
2001-08-27, 01:22:00,VALID,916.431,VALID,0,VALID,98.8889,VALID,0.0339617,VALID,19.1254,VALID,27,VALID,0.178711,
2001-08-27, 01:23:00,VALID,916.401,VALID,0,VALID,98.9054,VALID,0.0509425,VALID,19.1311,VALID,37,VALID,0.2519,
2001-08-27, 01:24:00,VALID,916.402,VALID,0,VALID,98.8978,VALID,0.0339617,VALID,19.1514,VALID,36,VALID,0.367383,
2001-08-27, 01:25:00,VALID,916.383,VALID,0,VALID,98.8838,VALID,0.0679233,VALID,19.151,VALID,33,VALID,0.083734,
2001-08-27, 01:26:00,VALID,916.377,VALID,0,VALID,98.8863,VALID,0.0339617,VALID,19.1577,VALID,35,VALID,0.118421,
2001-08-27, 01:27:00,VALID,916.379,VALID,0,VALID,98.8825,VALID,0.0169808,VALID,19.1542,VALID,36,VALID,0,
2001-08-27, 01:28:00,VALID,916.362,VALID,0,VALID,98.8825,VALID,0.0509425,VALID,19.1413,VALID,36,VALID,0.0898438,
2001-08-27, 01:29:00,VALID,916.358,VALID,0,VALID,98.8927,VALID,0.0509425,VALID,19.1574,VALID,37,VALID,0.486579,
2001-08-27, 01:30:00,VALID,916.333,VALID,0.2,VALID,98.927,VALID,-0.0679233,VALID,19.1874,VALID,33,VALID,0.694727,
2001-08-27, 01:31:00,VALID,916.36,VALID,0,VALID,98.9219,VALID,-0.0849042,VALID,19.2207,VALID,25,VALID,0.379434,
2001-08-27, 01:32:00,VALID,916.36,VALID,0,VALID,98.9296,VALID,-0.0339617,VALID,19.21,VALID,354,VALID,0.0595703,
2001-08-27, 01:33:00,VALID,916.353,VALID,0,VALID,98.9092,VALID,-0.0509425,VALID,19.2197,VALID,269,VALID,0.00721154,
2001-08-27, 01:34:00,VALID,916.369,VALID,0,VALID,98.8825,VALID,-0.0849042,VALID,19.2105,VALID,156,VALID,0.286801,
2001-08-27, 01:35:00,VALID,916.36,VALID,0,VALID,98.866,VALID,-0.0509425,VALID,19.1909,VALID,105,VALID,0.169671,
2001-08-27, 01:36:00,VALID,916.322,VALID,0,VALID,98.8889,VALID,-0.0339617,VALID,19.1845,VALID,101,VALID,0.153577,
2001-08-27, 01:37:00,VALID,916.328,VALID,0,VALID,98.8876,VALID,-0.0509425,VALID,19.1847,VALID,21,VALID,0.372196,
2001-08-27, 01:38:00,VALID,916.316,VALID,0,VALID,98.913,VALID,-0.0339617,VALID,19.1713,VALID,14,VALID,0.167187,
2001-08-27, 01:39:00,VALID,916.311,VALID,0,VALID,98.9232,VALID,-0.0509425,VALID,19.1842,VALID,15,VALID,0,
2001-08-27, 01:40:00,VALID,916.315,VALID,0,VALID,98.9054,VALID,-0.0169808,VALID,19.174,VALID,15,VALID,0.000585938,
2001-08-27, 01:41:00,VALID,916.3,VALID,0,VALID,98.8889,VALID,-0.0509425,VALID,19.1584,VALID,15,VALID,0.000400641,
2001-08-27, 01:42:00,VALID,916.29,VALID,0,VALID,98.9003,VALID,-0.0509425,VALID,19.1524,VALID,16,VALID,0.0810033,
2001-08-27, 01:43:00,VALID,916.271,VALID,0,VALID,98.9207,VALID,0,VALID,19.1551,VALID,21,VALID,0.537861,
2001-08-27, 01:44:00,VALID,916.244,VALID,0,VALID,98.9232,VALID,-0.0169808,VALID,19.1611,VALID,22,VALID,0.465049,
2001-08-27, 01:45:00,VALID,916.252,VALID,0,VALID,98.9321,VALID,-0.0509425,VALID,19.1837,VALID,20,VALID,0.713942,
2001-08-27, 01:46:00,VALID,916.248,VALID,0,VALID,98.9372,VALID,-0.0169808,VALID,19.1909,VALID,21,VALID,0.6125,
2001-08-27, 01:47:00,VALID,916.249,VALID,0,VALID,98.9245,VALID,-0.0509425,VALID,19.1775,VALID,24,VALID,0.585304,
2001-08-27, 01:48:00,VALID,916.231,VALID,0,VALID,98.927,VALID,-0.0339617,VALID,19.1981,VALID,22,VALID,0.55957,
2001-08-27, 01:49:00,VALID,916.237,VALID,0,VALID,98.9219,VALID,-0.0339617,VALID,19.1872,VALID,23,VALID,0.78726,
2001-08-27, 01:50:00,VALID,916.241,VALID,0,VALID,98.9385,VALID,-0.0509425,VALID,19.1909,VALID,26,VALID,1.0257,
2001-08-27, 01:51:00,VALID,916.233,VALID,0,VALID,98.9079,VALID,-0.0169808,VALID,19.1681,VALID,20,VALID,1.01342,
2001-08-27, 01:52:00,VALID,916.24,VALID,0,VALID,98.8774,VALID,-0.0509425,VALID,19.1425,VALID,20,VALID,1.20806,
2001-08-27, 01:53:00,VALID,916.256,VALID,0,VALID,98.8685,VALID,-0.0339617,VALID,19.1162,VALID,9,VALID,0.636619,
2001-08-27, 01:54:00,VALID,916.256,VALID,0,VALID,98.8851,VALID,-0.0169808,VALID,19.1035,VALID,6,VALID,0.394531,
2001-08-27, 01:55:00,VALID,916.257,VALID,0,VALID,98.8889,VALID,-0.0169808,VALID,19.091,VALID,343,VALID,0.199535,
2001-08-27, 01:56:00,VALID,916.262,VALID,0,VALID,98.8825,VALID,-0.0169808,VALID,19.0811,VALID,337,VALID,0.0955078,
2001-08-27, 01:57:00,VALID,916.256,VALID,0,VALID,98.8952,VALID,-0.0509425,VALID,19.0677,VALID,350,VALID,0.282452,
2001-08-27, 01:58:00,VALID,916.244,VALID,0,VALID,98.9232,VALID,-0.0339617,VALID,19.0772,VALID,19,VALID,0.703125,
2001-08-27, 01:59:00,VALID,916.242,VALID,0,VALID,98.9423,VALID,-0.0509425,VALID,19.1196,VALID,9,VALID,0.813902,
2001-08-27, 02:00:00,VALID,916.221,VALID,0,VALID,98.9499,VALID,-0.0509425,VALID,19.1104,VALID,15,VALID,0.367393,
2001-08-27, 02:01:00,VALID,916.217,VALID,0,VALID,98.9474,VALID,-0.0849042,VALID,19.1067,VALID,12,VALID,0.10016,
2001-08-27, 02:02:00,VALID,916.205,VALID,0,VALID,98.9588,VALID,-0.0849042,VALID,19.1169,VALID,12,VALID,0.135156,
2001-08-27, 02:03:00,VALID,916.18,VALID,0,VALID,98.9677,VALID,-0.0169808,VALID,19.1263,VALID,13,VALID,0.205025,
2001-08-27, 02:04:00,VALID,916.158,VALID,0,VALID,98.9537,VALID,-0.0679233,VALID,19.1104,VALID,358,VALID,0.133984,
2001-08-27, 02:05:00,VALID,916.154,VALID,0,VALID,98.9207,VALID,-0.0509425,VALID,19.0846,VALID,300,VALID,0.378405,
2001-08-27, 02:06:00,VALID,916.149,VALID,0,VALID,98.913,VALID,-0.0339617,VALID,19.0615,VALID,308,VALID,0.00287829,
2001-08-27, 02:07:00,VALID,916.139,VALID,0,VALID,98.9245,VALID,-0.0679233,VALID,19.065,VALID,16,VALID,0.599359,
2001-08-27, 02:08:00,VALID,916.113,VALID,0,VALID,98.941,VALID,-0.0509425,VALID,19.0712,VALID,19,VALID,0.293791,
2001-08-27, 02:09:00,VALID,916.103,VALID,0,VALID,98.927,VALID,-0.0849042,VALID,19.0717,VALID,21,VALID,0.375601,
2001-08-27, 02:10:00,VALID,916.07,VALID,0,VALID,98.9474,VALID,-0.0849042,VALID,19.062,VALID,16,VALID,1.20762,
2001-08-27, 02:11:00,VALID,916.024,VALID,0,VALID,98.9741,VALID,-0.0679233,VALID,19.0642,VALID,12,VALID,1.20334,
2001-08-27, 02:12:00,VALID,915.989,VALID,0,VALID,98.9652,VALID,-0.0679233,VALID,19.0712,VALID,354,VALID,0.870703,
2001-08-27, 02:13:00,VALID,915.984,VALID,0,VALID,98.941,VALID,-0.0339617,VALID,19.059,VALID,354,VALID,0.85637,
2001-08-27, 02:14:00,VALID,915.986,VALID,0,VALID,98.9397,VALID,-0.0509425,VALID,19.0324,VALID,7,VALID,1.05181,
2001-08-27, 02:15:00,VALID,915.969,VALID,0,VALID,98.9537,VALID,-0.0509425,VALID,19.0419,VALID,19,VALID,1.03566,
2001-08-27, 02:16:00,VALID,915.96,VALID,0,VALID,98.9893,VALID,-0.0679233,VALID,19.0719,VALID,32,VALID,0.499383,
2001-08-27, 02:17:00,VALID,915.942,VALID,0,VALID,98.997,VALID,-0.0169808,VALID,19.0749,VALID,25,VALID,0.267428,
2001-08-27, 02:18:00,VALID,915.908,VALID,0,VALID,98.997,VALID,-0.0169808,VALID,19.0809,VALID,28,VALID,0.189453,
2001-08-27, 02:19:00,VALID,915.863,VALID,0,VALID,98.9804,VALID,-0.0509425,VALID,19.068,VALID,97,VALID,0.129012,
2001-08-27, 02:20:00,VALID,915.837,VALID,0,VALID,98.9982,VALID,-0.0339617,VALID,19.0647,VALID,204,VALID,0.319727,
2001-08-27, 02:21:00,VALID,915.807,VALID,0,VALID,98.9881,VALID,-0.0509425,VALID,19.065,VALID,197,VALID,0.109575,
2001-08-27, 02:22:00,VALID,915.767,VALID,0,VALID,98.9944,VALID,-0.0849042,VALID,19.0488,VALID,273,VALID,0.257607,
2001-08-27, 02:23:00,VALID,915.752,VALID,0,VALID,98.9842,VALID,-0.0339617,VALID,19.0294,VALID,297,VALID,0.433293,
2001-08-27, 02:24:00,VALID,915.742,VALID,0,VALID,98.9575,VALID,-0.0509425,VALID,18.984,VALID,306,VALID,0.351151,
2001-08-27, 02:25:00,VALID,915.703,VALID,0,VALID,98.955,VALID,-0.0509425,VALID,18.9812,VALID,8,VALID,0.335938,
2001-08-27, 02:26:00,VALID,915.688,VALID,0,VALID,98.9792,VALID,-0.0169808,VALID,18.9711,VALID,15,VALID,0.329297,
2001-08-27, 02:27:00,VALID,915.667,VALID,0,VALID,98.9893,VALID,-0.0509425,VALID,18.9773,VALID,22,VALID,0.405828,
2001-08-27, 02:28:00,VALID,915.649,VALID,0,VALID,99.0122,VALID,-0.0509425,VALID,19.0071,VALID,12,VALID,0.66875,
2001-08-27, 02:29:00,VALID,915.628,VALID,0,VALID,99.0351,VALID,-0.0339617,VALID,19.0426,VALID,11,VALID,0.464944,
2001-08-27, 02:30:00,VALID,915.622,VALID,0,VALID,99.0364,VALID,-0.0169808,VALID,19.0394,VALID,18,VALID,0.573602,
2001-08-27, 02:31:00,VALID,915.613,VALID,0,VALID,99.0466,VALID,-0.0169808,VALID,19.0555,VALID,20,VALID,0.369591,
2001-08-27, 02:32:00,VALID,915.595,VALID,0,VALID,99.0453,VALID,-0.0169808,VALID,19.0491,VALID,21,VALID,0.686678,
2001-08-27, 02:33:00,VALID,915.575,VALID,0,VALID,99.0275,VALID,-0.0339617,VALID,19.0426,VALID,19,VALID,0.981571,
2001-08-27, 02:34:00,VALID,915.563,VALID,0,VALID,99.0287,VALID,-0.0339617,VALID,19.0262,VALID,20,VALID,1.20352,
2001-08-27, 02:35:00,VALID,915.555,VALID,0,VALID,99.0173,VALID,-0.0339617,VALID,19.0299,VALID,16,VALID,1.20735,
2001-08-27, 02:36:00,VALID,915.539,VALID,0,VALID,99.0186,VALID,-0.0509425,VALID,19.0205,VALID,24,VALID,0.776953,
2001-08-27, 02:37:00,VALID,915.547,VALID,0,VALID,99.0313,VALID,-0.0509425,VALID,19.0269,VALID,21,VALID,0.641226,
2001-08-27, 02:38:00,VALID,915.551,VALID,0,VALID,99.0491,VALID,-0.0339617,VALID,19.0264,VALID,20,VALID,0.740748,
2001-08-27, 02:39:00,VALID,915.557,VALID,0,VALID,99.0618,VALID,-0.0509425,VALID,19.0364,VALID,17,VALID,0.248598,
2001-08-27, 02:40:00,VALID,915.571,VALID,0,VALID,99.0593,VALID,-0.0509425,VALID,19.0463,VALID,17,VALID,0.284951,
2001-08-27, 02:41:00,VALID,915.577,VALID,0,VALID,99.058,VALID,-0.0849042,VALID,19.0334,VALID,4,VALID,0.585337,
2001-08-27, 02:42:00,VALID,915.579,VALID,0,VALID,99.0644,VALID,-0.0169808,VALID,19.023,VALID,7,VALID,0.556445,
2001-08-27, 02:43:00,VALID,915.577,VALID,0,VALID,99.0631,VALID,-0.0169808,VALID,19.0202,VALID,29,VALID,0.750845,
2001-08-27, 02:44:00,VALID,915.593,VALID,0,VALID,99.0733,VALID,-0.0679233,VALID,19.02,VALID,25,VALID,0.905273,
2001-08-27, 02:45:00,VALID,915.576,VALID,0,VALID,99.0974,VALID,0,VALID,19.0198,VALID,33,VALID,0.558293,
2001-08-27, 02:46:00,VALID,915.561,VALID,0,VALID,99.1025,VALID,-0.0339617,VALID,19.0488,VALID,22,VALID,0.303865,
2001-08-27, 02:47:00,VALID,915.54,VALID,0,VALID,99.1076,VALID,-0.101885,VALID,19.0421,VALID,22,VALID,0.106771,
2001-08-27, 02:48:00,VALID,915.535,VALID,0,VALID,99.086,VALID,-0.0509425,VALID,19.017,VALID,313,VALID,0.78125,
2001-08-27, 02:49:00,VALID,915.521,VALID,0,VALID,99.0389,VALID,-0.0169808,VALID,18.9817,VALID,13,VALID,0.531651,
2001-08-27, 02:50:00,VALID,915.501,VALID,0,VALID,99.0542,VALID,-0.0339617,VALID,18.9651,VALID,10,VALID,0.32832,
2001-08-27, 02:51:00,VALID,915.492,VALID,0,VALID,99.0682,VALID,-0.0849042,VALID,18.9651,VALID,10,VALID,0.458826,
2001-08-27, 02:52:00,VALID,915.472,VALID,0,VALID,99.0923,VALID,-0.0679233,VALID,18.9782,VALID,18,VALID,0.83125,
2001-08-27, 02:53:00,VALID,915.484,VALID,0,VALID,99.1012,VALID,-0.0339617,VALID,18.9974,VALID,10,VALID,0.636133,
2001-08-27, 02:54:00,VALID,915.476,VALID,0,VALID,99.1025,VALID,-0.0509425,VALID,18.9879,VALID,1,VALID,0.938939,
2001-08-27, 02:55:00,VALID,915.479,VALID,0,VALID,99.1,VALID,-0.0339617,VALID,18.9683,VALID,328,VALID,1.02183,
2001-08-27, 02:56:00,VALID,915.474,VALID,0,VALID,99.0936,VALID,-0.0169808,VALID,18.9353,VALID,360,VALID,0.85403,
2001-08-27, 02:57:00,VALID,915.463,VALID,0,VALID,99.1038,VALID,-0.0169808,VALID,18.9554,VALID,14,VALID,1.58173,
2001-08-27, 02:58:00,VALID,915.458,VALID,0,VALID,99.0987,VALID,-0.0169808,VALID,18.942,VALID,4,VALID,0.945508,
2001-08-27, 02:59:00,VALID,915.439,VALID,0,VALID,99.1127,VALID,0,VALID,18.9452,VALID,11,VALID,0.181799,
2001-08-27, 03:00:00,VALID,915.435,VALID,0,VALID,99.1127,VALID,0.101885,VALID,18.9498,VALID,275,VALID,0.213281,
2001-08-27, 03:01:00,VALID,915.423,VALID,0,VALID,99.1292,VALID,0.0509425,VALID,18.9669,VALID,299,VALID,0.246595,
2001-08-27, 03:02:00,VALID,915.426,VALID,0,VALID,99.1368,VALID,0.0679233,VALID,18.9835,VALID,349,VALID,0.502262,
2001-08-27, 03:03:00,VALID,915.428,VALID,0,VALID,99.1178,VALID,0.0679233,VALID,18.948,VALID,314,VALID,0.448117,
2001-08-27, 03:04:00,VALID,915.412,VALID,0,VALID,99.1101,VALID,0.0679233,VALID,18.9244,VALID,309,VALID,0.454359,
2001-08-27, 03:05:00,VALID,915.43,VALID,0,VALID,99.1089,VALID,0.0509425,VALID,18.9155,VALID,355,VALID,0.658854,
2001-08-27, 03:06:00,VALID,915.442,VALID,0,VALID,99.1279,VALID,0.0849042,VALID,18.9182,VALID,359,VALID,0.474609,
2001-08-27, 03:07:00,VALID,915.442,VALID,0,VALID,99.1318,VALID,0.0339617,VALID,18.9346,VALID,352,VALID,0.345861,
2001-08-27, 03:08:00,VALID,915.464,VALID,0,VALID,99.1419,VALID,0.0169808,VALID,18.9413,VALID,13,VALID,0.679883,
2001-08-27, 03:09:00,VALID,915.487,VALID,0,VALID,99.1483,VALID,0.0849042,VALID,18.9473,VALID,12,VALID,0.451522,
2001-08-27, 03:10:00,VALID,915.517,VALID,0,VALID,99.1521,VALID,0.0679233,VALID,18.9544,VALID,337,VALID,0.701686,
2001-08-27, 03:11:00,VALID,915.521,VALID,0,VALID,99.1279,VALID,0.0509425,VALID,18.9155,VALID,342,VALID,0.386819,
2001-08-27, 03:12:00,VALID,915.553,VALID,0,VALID,99.1406,VALID,0.0339617,VALID,18.9157,VALID,359,VALID,0.00164474,
2001-08-27, 03:13:00,VALID,915.571,VALID,0,VALID,99.1394,VALID,0.0679233,VALID,18.9286,VALID,359,VALID,0,
2001-08-27, 03:14:00,VALID,915.59,VALID,0,VALID,99.1445,VALID,0.0339617,VALID,18.9284,VALID,359,VALID,0,
2001-08-27, 03:15:00,VALID,915.603,VALID,0,VALID,99.1394,VALID,0.0339617,VALID,18.912,VALID,359,VALID,0,
2001-08-27, 03:16:00,VALID,915.594,VALID,0,VALID,99.1457,VALID,0.0849042,VALID,18.9155,VALID,359,VALID,0,
2001-08-27, 03:17:00,VALID,915.583,VALID,0,VALID,99.147,VALID,0.0509425,VALID,18.9286,VALID,359,VALID,0.130208,
2001-08-27, 03:18:00,VALID,915.585,VALID,0,VALID,99.1508,VALID,0.0679233,VALID,18.9316,VALID,360,VALID,0.357936,
2001-08-27, 03:19:00,VALID,915.58,VALID,0,VALID,99.1496,VALID,0.0339617,VALID,18.9318,VALID,359,VALID,0.0560897,
2001-08-27, 03:20:00,VALID,915.567,VALID,0,VALID,99.1521,VALID,0.0339617,VALID,18.912,VALID,359,VALID,0,
2001-08-27, 03:21:00,VALID,915.557,VALID,0,VALID,99.1496,VALID,0.0679233,VALID,18.9351,VALID,359,VALID,0,
2001-08-27, 03:22:00,VALID,915.537,VALID,0,VALID,99.161,VALID,0.0849042,VALID,18.9251,VALID,360,VALID,0.128906,
2001-08-27, 03:23:00,VALID,915.514,VALID,0,VALID,99.1661,VALID,0.0679233,VALID,18.9415,VALID,11,VALID,0.535262,
2001-08-27, 03:24:00,VALID,915.502,VALID,0,VALID,99.1763,VALID,0.0679233,VALID,18.9549,VALID,23,VALID,0.65293,
2001-08-27, 03:25:00,VALID,915.493,VALID,0,VALID,99.1788,VALID,0.0679233,VALID,18.947,VALID,21,VALID,0.71254,
2001-08-27, 03:26:00,VALID,915.487,VALID,0,VALID,99.1788,VALID,0.0849042,VALID,18.9505,VALID,22,VALID,0.42352,
2001-08-27, 03:27:00,VALID,915.493,VALID,0,VALID,99.1648,VALID,0.0679233,VALID,18.9507,VALID,13,VALID,0.223558,
2001-08-27, 03:28:00,VALID,915.503,VALID,0,VALID,99.1686,VALID,0.101885,VALID,18.948,VALID,14,VALID,0.327303,
2001-08-27, 03:29:00,VALID,915.514,VALID,0,VALID,99.1763,VALID,0.0849042,VALID,18.9544,VALID,18,VALID,0.595954,
2001-08-27, 03:30:00,VALID,915.539,VALID,0,VALID,99.1686,VALID,-0.0169808,VALID,18.9497,VALID,24,VALID,0.646289,